Location: El Álamo
(40.2307°N, 3.9945°W)
Time: 04:56:24
(UTC+00:00)

ERS-1 Rocket - Pass Details

Date: 19 May 2025
Orbit: 747 x 753 km, 98.2° (Epoch: 23 June)

Event Time Altitude Azimuth Distance (km) Brightness Sun altitude
Exits shadow 21:44:48 18° 206° (SSW) 1,807 4.7 -20.7°
Maximum altitude 21:48:00 35° 263° (W) 1,195 4.2 -21.0°
Drops below altitude 10° 21:52:36 10° 329° (NNW) 2,283 6.6 -21.5°
Sets 21:55:05 0° 338° (NNW) 3,213 7.6 -21.8°
